ONEWEB-0329, 49107

Orbit data source: Space-Track

ONEWEB-0329, 49107 is a payload satellite owned by One Web (NAA) (UK) in LEO that was launched on Sat, 21 Aug 2021 UTC via a SOYUZ-2-1B launch vehicle from the Tyuratam Missile And Space Complex (TTMTR). Payload-class satellites include a variety of spacecraft equipped with specific instruments for various scientific and technological missions. These include communications satellites like Starlink; space stations such as the ISS; scientific satellites like the Hubble; Earth observation satellites from companies like Planet Labs, Umbra, and HawkEye 360; GPS; miniature CubeSats for education and research; and military/defense satellites.

Loading next visibility...
Identifier
49107, 2021-075AJ
Orbit
LEO
Country
Flag of UKUK
Related business
Manufacturer
One Web
Mission
Operational Commercial Communications
Bus & Motor
ARROW, Unknown motor
Mass
148 kg wet, ~140 kg dry
Launch date (UTC)
2021-08-21 (5 years ago)
Launch vehicle
SOYUZ-2-1B
Launch site
Tyuratam Missile And Space Complex (TTMTR)
Object type
Payload
Rocket body
Debris
Shape & HBR
Trap Box + 2 Pan, 6.7 m
Radar Cross Section
3.464 m², Large (>1 m²)

Expand to show TLE details & history
Last TLE update: 6 hours ago

TLE from 6 hours ago
0 ONEWEB-0329
1 49107U 21075AJ  26130.21375819  .00000042  00000-0  75124-4 0  9993
2 49107  87.9170  13.4176 0001731  86.2976 273.8353 13.17649750228586
Epoch: 2026-05-10T05:07Z
TLE epoch observation values (Epoch: 2026-05-10T05:07:48.707Z)
Latitude
-0.00008°
Longitude
68.44459°
Altitude
1,196.521 km
Speed
7.256 km/s
True Right ascension
00h 53m 40s
True Declination
0° 00' 00"
Sunlit
Object was in daylight at epoch
Visualization orbit readout
Latitude
Unknown
Longitude
Unknown
Altitude
Unknown
Speed
Unknown
Apparent Right ascension
Unknown
Apparent Declination
Unknown
Sunlit
N/A
Visualization observer readout
Local Sidereal Time
19:48:58
Azimuth
Unknown
Elevation
Unknown
Doppler factor
Unknown
Orbital elements
Apogee altitude
1,192.129 km
Perigee altitude
1,189.509 km
Semi-major axis
7,568.956 km
Eccentricity
0.00017
Inclination
87.917°
RAAN
13.4176°
Arg. of periapsis
86.2976°
True anomaly
273.81551°
Mean anomaly
273.8353°
Eccentric anomaly
273.8254°
Mean motion
3.29602 °/min
Orbital period
109.22 mins
BSTAR
0.000075124
Loading maneuver chart data...
Computing Atmospheric mass density...
Loading historical data...
Loading historical data...
Loading historical data...
Loading historical data...
Loading historical data...
Loading historical data...
Loading historical data...

Documentation

Showing up to 5 results
|